THOR ABLESTAR DEB, 530

Orbit data source: Space-Track

THOR ABLESTAR DEB, 530 is space debris in LEO originally from a launch on Thu, 29 Jun 1961 UTC launched from the Air Force Eastern Test Range (AFETR). Debris objects in space refer to the collection of defunct objects orbiting the Earth. Examples of debris include non-operational satellites, rocket bodies, and fragments generated from explosions, collisions, or faulty payload assembly.

Loading next visibility...
Identifier
530, 1961-015FU
Orbit
LEO
Country
Flag of USUS
Related business
Manufacturer
Unknown
Mission
Spacecraft
Bus & Motor
Unknown
Mass
Unknown
Launch date (UTC)
1961-06-29 (65 years ago)
Launch vehicle
Unknown
Launch site
Air Force Eastern Test Range (AFETR)
Object type
Payload
Rocket body
Debris
Shape & HBR
Unknown shape, 0.1 m
Radar Cross Section
Small (<0.1 m²)

Expand to show TLE details & history
Last TLE update: 1 day ago

TLE from 1 day ago
0 THOR ABLESTAR DEB
1 00530U 61015FU  26135.10745807  .00000049  00000-0  84973-4 0  9998
2 00530  66.8805  48.9405 0080824 197.5619 162.2668 13.99427322302999
Epoch: 2026-05-15T02:34Z
TLE epoch observation values (Epoch: 2026-05-15T02:34:44.377Z)
Latitude
0.00001°
Longitude
137.41208°
Altitude
953.917 km
Speed
7.347 km/s
True Right ascension
03h 15m 45s
True Declination
0° 00' 00"
Sunlit
Object was in daylight at epoch
Visualization orbit readout
Latitude
Unknown
Longitude
Unknown
Altitude
Unknown
Speed
Unknown
Apparent Right ascension
Unknown
Apparent Declination
Unknown
Sunlit
N/A
Visualization observer readout
Local Sidereal Time
19:32:22
Azimuth
Unknown
Elevation
Unknown
Doppler factor
Unknown
Orbital elements
Apogee altitude
952.934 km
Perigee altitude
835.379 km
Semi-major axis
7,272.293 km
Eccentricity
0.00808
Inclination
66.8805°
RAAN
48.9405°
Arg. of periapsis
197.5619°
True anomaly
162.54621°
Mean anomaly
162.2668°
Eccentric anomaly
162.40677°
Mean motion
3.49974 °/min
Orbital period
102.86 mins
BSTAR
0.000084973

Documentation

Showing up to 5 results
|